Weather History for Charlevoix, MI

Change the Weather History Date:

Monday, December 2, 2013

  Actual Average Record
Temperature  
Mean Temperature 30 °F -  
Max Temperature 32 °F 41 °F 48 °F (2012)
Min Temperature 29 °F 32 °F 8 °F (2014)
Degree Days  
Heating Degree Days 34    
Moisture  
Dew Point 24 °F    
Average Humidity 75    
Maximum Humidity 88    
Minimum Humidity 63    
Precipitation  
Precipitation 0.00 in - - ()
Sea Level Pressure  
Sea Level Pressure 29.96 in    
Wind  
Wind Speed 8 mph (East)    
Max Wind Speed 13 mph    
Max Gust Speed 16 mph    
Visibility 10 miles    
Events      
Averages and records for this station are not official NWS values.
T = Trace of Precipitation, MM = Missing Value Source: NWS Daily Summary

Daily Weather History Graph

Daily Weather History Graph

Search for Another Location

Airport:

Trip Planner

Search our weather history database for the weather conditions in past years. The results will help you decide how hot, cold, wet, or windy it might be!

Date:

Astronomy

Dec. 02, 2013 Rise Set
Actual Time 8:01 AM EST 4:59 PM EST
Civil Twilight 7:28 AM EST 5:32 PM EST
Nautical Twilight 6:51 AM EST 6:09 PM EST
Astronomical Twilight 6:15 AM EST 6:45 PM EST
Moon 7:23 AM EST (12/2) 5:03 PM EST (12/2)
Length of Visible Light 10h 04m
Length of Day
8h 58m
Waning Crescent, 0% of the Moon is Illuminated
Dec 2
Waning Crescent
Dec 2
New
Dec 9
First Quarter
Dec 17
Full
Dec 25
Last Quarter

Hourly Weather History & Observations

Time (EST) Temp. Windchill Dew Point Humidity Pressure Visibility Wind Dir Wind Speed Gust Speed Precip Events Conditions
12:15 AM 30.6 °F 24.7 °F 27.1 °F 87% 30.03 in 7.0 mi ESE 5.8 mph - N/A   Overcast
12:34 AM 30.6 °F 23.8 °F 27.1 °F 87% 30.02 in 7.0 mi ESE 6.9 mph - N/A   Overcast
12:55 AM 30.6 °F 23.1 °F 27.3 °F 88% 30.01 in 10.0 mi ESE 8.1 mph - N/A   Overcast
1:15 AM 30.7 °F 23.3 °F 27.3 °F 87% 30.01 in 10.0 mi SE 8.1 mph - N/A   Overcast
1:34 AM 30.7 °F 26.0 °F 27.3 °F 87% 30.00 in 10.0 mi ESE 4.6 mph - N/A   Overcast
1:55 AM 30.9 °F 24.3 °F 27.5 °F 87% 30.00 in 10.0 mi ESE 6.9 mph - N/A   Overcast
2:15 AM 30.9 °F 25.2 °F 27.1 °F 86% 30.00 in 10.0 mi East 5.8 mph - N/A   Overcast
2:34 AM 30.9 °F 23.5 °F 27.0 °F 85% 30.00 in 10.0 mi East 8.1 mph - N/A   Overcast
2:55 AM 30.9 °F 22.2 °F 26.8 °F 85% 30.00 in 10.0 mi East 10.4 mph - N/A   Overcast
3:15 AM 30.7 °F 23.3 °F 26.6 °F 85% 29.99 in 10.0 mi East 8.1 mph - N/A   Overcast
3:34 AM 30.7 °F 22.0 °F 26.4 °F 84% 29.99 in 10.0 mi East 10.4 mph - N/A   Overcast
3:55 AM 30.7 °F 21.4 °F 26.2 °F 83% 29.98 in 10.0 mi East 11.5 mph - N/A   Overcast
4:15 AM 30.7 °F 22.6 °F 26.1 °F 83% 29.98 in 10.0 mi East 9.2 mph - N/A   Overcast
4:35 AM 30.7 °F 22.0 °F 25.5 °F 81% 29.98 in 10.0 mi East 10.4 mph - N/A   Overcast
4:55 AM 30.9 °F 22.8 °F 25.5 °F 80% 29.97 in 10.0 mi East 9.2 mph - N/A   Overcast
5:14 AM 31.1 °F 23.7 °F 25.7 °F 80% 29.97 in 10.0 mi ESE 8.1 mph - N/A   Overcast
5:35 AM 30.9 °F 23.5 °F 24.8 °F 78% 29.97 in 10.0 mi ESE 8.1 mph - N/A   Overcast
5:55 AM 31.1 °F 23.7 °F 24.3 °F 76% 29.97 in 10.0 mi East 8.1 mph - N/A   Overcast
6:14 AM 31.1 °F 22.4 °F 23.0 °F 72% 29.97 in 10.0 mi East 10.4 mph - N/A   Overcast
6:35 AM 31.1 °F 23.1 °F 22.6 °F 71% 29.97 in 10.0 mi East 9.2 mph - N/A   Overcast
6:54 AM 31.1 °F 24.5 °F 22.1 °F 69% 29.97 in 10.0 mi East 6.9 mph - N/A   Overcast
7:15 AM 31.1 °F 22.4 °F 21.9 °F 69% 29.97 in 10.0 mi East 10.4 mph - N/A   Overcast
7:35 AM 30.9 °F 22.2 °F 21.9 °F 69% 29.97 in 10.0 mi East 10.4 mph 16.1 mph N/A   Overcast
7:54 AM 30.7 °F 22.6 °F 22.3 °F 71% 29.97 in 10.0 mi East 9.2 mph - N/A   Overcast
8:15 AM 30.9 °F 22.8 °F 23.0 °F 72% 29.97 in 10.0 mi East 9.2 mph - N/A   Overcast
8:35 AM 30.6 °F 21.8 °F 23.0 °F 74% 29.97 in 10.0 mi East 10.4 mph - N/A   Overcast
8:54 AM 30.2 °F 20.2 °F 23.2 °F 75% 29.97 in 10.0 mi East 12.7 mph - N/A   Overcast
9:15 AM 30.2 °F 21.3 °F 23.0 °F 75% 29.97 in 10.0 mi ESE 10.4 mph - N/A   Overcast
9:35 AM 30.9 °F 22.8 °F 24.1 °F 76% 29.97 in 10.0 mi East 9.2 mph - N/A   Overcast
9:54 AM 31.1 °F 24.5 °F 24.6 °F 77% 29.96 in 10.0 mi East 6.9 mph - N/A   Overcast
10:15 AM 31.1 °F 23.7 °F 25.3 °F 79% 29.96 in 10.0 mi ESE 8.1 mph - N/A   Overcast
10:35 AM 31.1 °F 23.7 °F 24.8 °F 77% 29.96 in 7.0 mi SE 8.1 mph - N/A   Overcast
10:54 AM 31.5 °F 25.8 °F 24.6 °F 76% 29.96 in 10.0 mi SE 5.8 mph - N/A   Overcast
11:15 AM 31.6 °F 25.1 °F 24.6 °F 75% 29.95 in 10.0 mi ESE 6.9 mph - N/A   Overcast
11:34 AM 32.0 °F 25.6 °F 24.8 °F 75% 29.95 in 10.0 mi ESE 6.9 mph - N/A   Overcast
11:55 AM 32.0 °F 26.4 °F 24.6 °F 74% 29.95 in 10.0 mi ESE 5.8 mph - N/A   Overcast
12:15 PM 32.0 °F 26.4 °F 24.6 °F 74% 29.94 in 10.0 mi SE 5.8 mph - N/A   Overcast
12:34 PM 32.0 °F 26.4 °F 25.2 °F 76% 29.94 in 10.0 mi ESE 5.8 mph - N/A   Overcast
12:55 PM 32.2 °F 25.8 °F 25.7 °F 77% 29.94 in 10.0 mi East 6.9 mph - N/A   Overcast
1:14 PM 32.2 °F 25.0 °F 25.7 °F 77% 29.94 in 10.0 mi East 8.1 mph - N/A   Overcast
1:35 PM 32.0 °F 25.6 °F 25.5 °F 77% 29.94 in 10.0 mi East 6.9 mph - N/A   Overcast
1:55 PM 32.0 °F 25.6 °F 25.5 °F 77% 29.93 in 10.0 mi East 6.9 mph - N/A   Overcast
2:14 PM 32.0 °F 25.6 °F 25.5 °F 77% 29.93 in 10.0 mi East 6.9 mph - N/A   Overcast
2:35 PM 32.4 °F 25.3 °F 25.3 °F 75% 29.92 in 10.0 mi East 8.1 mph - N/A   Overcast
2:55 PM 32.4 °F 26.9 °F 24.6 °F 73% 29.92 in 10.0 mi East 5.8 mph - N/A   Overcast
3:14 PM 32.4 °F 26.9 °F 24.4 °F 73% 29.92 in 10.0 mi East 5.8 mph - N/A   Overcast
3:35 PM 32.2 °F 26.7 °F 24.6 °F 74% 29.92 in 10.0 mi ENE 5.8 mph - N/A   Overcast
3:54 PM 32.0 °F 24.8 °F 24.4 °F 74% 29.92 in 10.0 mi ENE 8.1 mph - N/A   Overcast
4:15 PM 32.0 °F 25.6 °F 24.1 °F 73% 29.92 in 10.0 mi East 6.9 mph - N/A   Overcast
4:35 PM 32.0 °F 24.2 °F 24.1 °F 73% 29.92 in 10.0 mi East 9.2 mph - N/A   Overcast
4:54 PM 32.0 °F 24.8 °F 23.7 °F 71% 29.92 in 10.0 mi East 8.1 mph - N/A   Overcast
5:15 PM 32.0 °F 24.2 °F 23.5 °F 71% 29.92 in 10.0 mi East 9.2 mph - N/A   Overcast
5:35 PM 32.0 °F 24.2 °F 23.2 °F 70% 29.92 in 10.0 mi East 9.2 mph - N/A   Overcast
5:54 PM 32.0 °F 25.6 °F 22.3 °F 67% 29.93 in 10.0 mi East 6.9 mph - N/A   Overcast
6:15 PM 32.0 °F 24.8 °F 22.1 °F 67% 29.93 in 10.0 mi East 8.1 mph - N/A   Overcast
6:35 PM 32.0 °F 24.8 °F 21.6 °F 65% 29.93 in 10.0 mi East 8.1 mph - N/A   Overcast
6:55 PM 32.0 °F 24.8 °F 21.2 °F 64% 29.93 in 10.0 mi East 8.1 mph - N/A   Overcast
7:15 PM 32.0 °F 24.8 °F 20.7 °F 63% 29.94 in 10.0 mi East 8.1 mph - N/A   Overcast
7:34 PM 32.0 °F 24.2 °F 20.7 °F 63% 29.94 in 10.0 mi East 9.2 mph - N/A   Overcast
7:55 PM 32.0 °F 24.2 °F 21.0 °F 64% 29.94 in 10.0 mi East 9.2 mph - N/A   Overcast
8:15 PM 32.0 °F 25.6 °F 21.6 °F 65% 29.94 in 10.0 mi East 6.9 mph - N/A   Overcast
8:34 PM 32.0 °F 24.2 °F 21.2 °F 64% 29.94 in 10.0 mi East 9.2 mph - N/A   Overcast
8:55 PM 31.8 °F 24.6 °F 21.4 °F 65% 29.94 in 10.0 mi East 8.1 mph - N/A   Overcast
9:15 PM 31.8 °F 25.4 °F 21.9 °F 67% 29.95 in 10.0 mi East 6.9 mph - N/A   Overcast
9:34 PM 31.8 °F 27.3 °F 22.6 °F 69% 29.95 in 10.0 mi ESE 4.6 mph - N/A   Overcast
9:55 PM 31.5 °F 25.8 °F 22.1 °F 68% 29.96 in 10.0 mi ESE 5.8 mph - N/A   Overcast
10:15 PM 31.1 °F 23.7 °F 21.7 °F 68% 29.96 in 10.0 mi East 8.1 mph - N/A   Overcast
10:34 PM 30.7 °F 24.1 °F 21.4 °F 68% 29.96 in 10.0 mi East 6.9 mph - N/A   Overcast
10:55 PM 30.9 °F 23.5 °F 21.9 °F 69% 29.95 in 10.0 mi East 8.1 mph - N/A   Overcast
11:15 PM 30.6 °F 23.1 °F 21.4 °F 69% 29.95 in 10.0 mi East 8.1 mph - N/A   Overcast
11:34 PM 29.8 °F 22.2 °F 21.6 °F 71% 29.95 in 10.0 mi East 8.1 mph - N/A   Overcast
11:55 PM 29.8 °F 22.2 °F 21.4 °F 71% 29.96 in 10.0 mi East 8.1 mph - N/A   Overcast